DECAYED

CZ-6A DEB, 54419 (Decayed)

Orbit data source: Space-Track

CZ-6A DEB, 54419 was space debris in LEO originally from a launch on Fri, 11 Nov 2022 UTC launched from the Taiyaun Space Center, China (TSC). Debris objects in space refer to the collection of defunct objects orbiting the Earth. Examples of debris include non-operational satellites, rocket bodies, and fragments generated from explosions, collisions, or faulty payload assembly.

Not visible in the next 10 days
Identifier
54419, 2022-151ET
Orbit
Decayed
Country
Flag of CNCN / PRC
Related business
Manufacturer
SAST
Mission
Decayed spacecraft
Bus & Motor
Unknown
Mass
Unknown
Launch date (UTC)
2022-11-11 (4 years ago)
Launch vehicle
Unknown
Launch site
Taiyaun Space Center, China (TSC)
Object type
Payload
Rocket body
Debris
Shape & HBR
Unknown shape, 0.1 m
Radar Cross Section
Medium (>0.1 m² and <1 m²)

Expand to show TLE details & history
Last TLE update: 1 year ago

TLE from 1 year ago
0 CZ-6A DEB
1 54419U 22151ET  25126.51176711  .10769579  31748-5  34550-2 0  9990
2 54419  98.5365 236.9664 0019925 265.9072  93.9939 16.25665795134871
Epoch: 2025-05-06T12:16Z
TLE epoch observation values (Epoch: 2025-05-06T12:16:56.678Z)
Latitude
0.00001°
Longitude
-171.87967°
Altitude
208.349 km
Speed
7.781 km/s
True Right ascension
15h 47m 51s
True Declination
0° 00' 00"
Sunlit
Object was in full shadow at epoch
Visualization orbit readout
Latitude
Unknown
Longitude
Unknown
Altitude
Unknown
Speed
Unknown
Apparent Right ascension
Unknown
Apparent Declination
Unknown
Sunlit
N/A
Visualization observer readout
Local Sidereal Time
11:59:02
Azimuth
Unknown
Elevation
Unknown
Doppler factor
Unknown
Orbital elements
Apogee altitude
214.203 km
Perigee altitude
187.985 km
Semi-major axis
6,579.231 km
Eccentricity
0.00199
Inclination
98.5365°
RAAN
236.9664°
Arg. of periapsis
265.9072°
True anomaly
94.22163°
Mean anomaly
93.9939°
Eccentric anomaly
94.10777°
Mean motion
4.06706 °/min
Orbital period
88.52 mins
BSTAR
0.003455
Loading maneuver chart data...
Computing Atmospheric mass density...
Loading historical data...
Loading historical data...
Loading historical data...
Loading historical data...
Loading historical data...
Loading historical data...
Loading historical data...

Documentation

Showing up to 5 results
|